Total_Precipitation_Accumulation
2.78 2.94 2.70 2.42 2.39 2.37 2.75 3.22 3.57 3.31 2.87 2.58 2.39 2.31 2.41 2.60 2.90 2.65 2.71 2.70 2.37 2.08 1.84 1.77 1.75 1.70 1.71 1.79 1.94 2.00 2.04 2.11 2.29 2.56 2.86 3.15 3.41 3.69
2.88 2.96 2.81 2.54 2.62 2.48 2.57 2.95 3.27 3.46 3.10 2.35 2.34 2.25 2.39 2.33 2.74 2.53 2.72 2.73 2.33 2.07 1.84 1.73 1.65 1.60 1.57 1.60 1.66 1.75 1.83 1.83 1.85 1.98 2.12 2.28 2.41 2.57
2.81 2.79 2.76 2.82 2.86 2.71 2.82 2.90 3.00 3.38 3.38 2.67 2.50 2.56 2.68 2.70 2.76 2.61 2.48 2.49 2.28 2.20 1.92 1.74 1.63 1.56 1.53 1.49 1.50 1.50 1.55 1.59 1.62 1.65 1.72 1.80 1.86 1.90
3.14 3.28 3.04 3.08 3.11 2.98 2.99 2.96 3.03 3.32 3.36 3.10 2.84 2.79 2.86 2.81 2.82 2.64 2.23 2.11 2.21 2.38 2.12 1.85 1.68 1.57 1.51 1.45 1.42 1.38 1.40 1.46 1.51 1.48 1.48 1.54 1.64 1.66
2.92 3.21 3.24 3.46 3.18 3.19 3.13 3.01 3.03 3.06 3.27 3.08 2.84 2.99 2.98 2.93 2.87 2.49 2.30 2.38 2.17 2.46 2.40 2.01 1.76 1.65 1.52 1.42 1.32 1.27 1.26 1.30 1.37 1.43 1.43 1.41 1.41 1.44
2.65 2.80 2.95 3.25 3.23 3.34 3.17 3.16 3.28 3.36 3.48 3.32 3.10 3.17 3.28 3.28 3.17 2.79 2.64 2.54 2.38 2.17 2.30 2.09 1.93 1.82 1.68 1.54 1.44 1.32 1.30 1.30 1.31 1.33 1.36 1.40 1.40 1.37
2.62 2.60 2.60 2.87 2.97 3.06 2.78 2.97 3.32 3.39 3.45 3.37 3.23 3.24 3.23 3.39 3.12 2.95 2.82 2.81 2.70 2.39 2.28 2.00 1.91 1.75 1.71 1.73 1.65 1.52 1.43 1.38 1.38 1.37 1.34 1.34 1.39 1.45
2.90 2.84 2.70 2.63 2.65 2.70 2.72 2.82 2.99 3.00 3.07 3.21 3.13 3.10 3.12 3.27 3.46 3.34 3.17 3.03 2.77 2.45 2.51 2.17 2.01 1.91 1.74 1.61 1.76 1.72 1.56 1.46 1.41 1.41 1.43 1.46 1.49 1.51
2.93 2.89 2.55 2.38 2.64 2.54 2.69 2.72 2.53 2.48 2.51 2.68 2.69 2.69 3.16 3.49 3.85 3.50 3.33 3.15 2.86 2.69 2.74 2.35 2.13 2.04 1.84 1.77 1.93 1.70 1.51 1.41 1.39 1.40 1.48 1.53 1.56 1.56
2.62 2.73 2.66 2.52 2.55 2.70 2.60 2.32 2.09 2.08 2.15 2.07 2.06 2.32 2.80 3.43 3.79 3.76 3.78 3.53 3.16 2.75 2.63 2.36 2.13 2.00 1.81 1.81 2.03 1.91 1.71 1.52 1.43 1.42 1.42 1.47 1.51 1.54
2.37 2.39 2.40 2.25 2.42 2.58 2.44 2.18 1.98 1.87 1.93 1.96 1.92 2.14 2.43 2.81 3.26 3.51 3.44 3.31 2.88 2.47 2.39 2.29 2.11 2.14 2.06 1.94 1.92 2.08 1.90 1.70 1.61 1.53 1.49 1.46 1.48 1.52
2.47 2.45 2.51 2.25 2.20 2.16 2.03 2.03 1.84 1.73 1.89 1.87 1.81 1.84 1.96 2.28 2.78 2.87 2.96 3.10 2.82 2.48 2.20 2.26 2.15 2.35 2.29 2.01 1.90 1.89 1.82 1.82 1.79 1.69 1.59 1.56 1.58 1.40
2.24 2.14 2.16 2.16 1.94 1.78 1.74 1.70 1.65 1.78 1.88 1.83 1.72 1.70 1.83 2.01 2.19 2.47 2.74 2.82 2.68 2.32 2.17 2.35 2.20 2.26 2.27 2.00 1.87 1.84 1.76 1.67 1.68 1.75 1.77 1.78 1.74 1.56
2.29 2.25 2.24 2.24 1.96 1.80 1.62 1.48 1.58 1.63 1.66 1.76 1.65 1.53 1.56 1.69 1.96 2.28 2.61 2.74 2.67 2.53 2.53 2.62 2.49 2.38 2.34 2.13 1.91 1.79 1.77 1.72 1.70 1.73 1.77 2.02 1.97 1.90
2.14 2.48 2.50 2.42 2.17 1.86 1.75 1.78 1.73 1.60 1.61 1.62 1.52 1.44 1.50 1.68 1.97 2.33 2.62 2.83 2.79 2.62 2.57 2.56 2.58 2.65 2.69 2.37 2.07 1.98 2.00 1.92 1.80 1.76 1.77 1.83 1.87 1.93
2.10 2.41 2.56 2.53 2.37 2.11 1.99 1.93 1.72 1.65 1.73 1.70 1.71 1.75 1.88 2.01 2.16 2.30 2.55 2.73 2.80 2.63 2.55 2.55 2.58 2.74 2.69 2.53 2.39 2.22 2.11 2.03 1.98 2.00 2.00 1.97 1.97 1.94
2.28 2.46 2.59 2.68 2.69 2.60 2.48 2.41 2.29 2.13 1.96 1.91 1.99 2.00 2.05 2.13 2.18 2.35 2.62 2.72 2.65 2.40 2.42 2.54 2.66 2.77 2.78 2.78 2.59 2.25 2.13 2.02 1.99 2.10 2.15 2.07 1.95 1.89
2.22 2.30 2.54 2.74 2.81 2.89 2.92 2.81 2.58 2.39 2.21 2.20 2.18 2.20 2.23 2.22 2.26 2.42 2.64 2.73 2.59 2.39 2.35 2.45 2.72 2.91 2.89 2.74 2.49 2.27 2.16 2.02 1.93 1.99 2.02 1.98 1.80 1.63
2.00 2.11 2.25 2.38 2.58 2.80 2.86 2.83 2.61 2.49 2.52 2.51 2.44 2.45 2.50 2.47 2.43 2.51 2.70 2.82 2.76 2.61 2.54 2.60 2.74 2.83 2.69 2.32 2.06 2.00 1.99 1.93 1.96 1.96 1.89 1.83 1.71 1.61
1.69 1.87 2.08 2.24 2.43 2.69 2.85 2.88 2.80 2.73 2.73 2.79 2.79 2.75 2.76 2.65 2.50 2.41 2.56 2.69 2.74 2.73 2.67 2.59 2.53 2.59 2.58 2.39 2.20 1.98 1.90 1.97 1.96 1.93 1.87 1.83 1.80 1.85
1.57 1.61 1.72 1.94 2.19 2.46 2.73 2.89 2.87 2.77 2.71 2.77 2.78 2.76 2.80 2.78 2.60 2.43 2.47 2.69 2.74 2.66 2.50 2.31 2.26 2.56 2.76 2.89 2.63 2.15 1.94 1.97 2.06 2.05 2.02 2.11 2.02 1.91
1.63 1.64 1.74 1.92 2.14 2.40 2.60 2.71 2.76 2.76 2.71 2.68 2.62 2.57 2.60 2.61 2.47 2.39 2.38 2.46 2.50 2.49 2.46 2.47 2.69 2.89 2.94 2.90 2.51 2.17 2.06 2.08 2.22 2.32 2.19 2.05 1.95 1.83
1.75 1.75 1.78 1.88 2.05 2.27 2.45 2.61 2.67 2.71 2.72 2.72 2.67 2.58 2.56 2.57 2.50 2.46 2.44 2.45 2.47 2.47 2.61 2.71 2.76 2.86 2.81 2.76 2.67 2.52 2.36 2.30 2.32 2.25 2.00 1.86 1.78 1.70